Regional Weather Roundup
Issued by NWS Albany, NY

Current Version | Previous Version | Graphics & Text | Print | Product List | Glossary Off
Versions: 1 2 3 4 5 6 7 8 9 10 11 12 13 14 15 16 17 18 19 20 21 22 23 24 25 26 27 28 29 30 31 32 33 34 35 36 37 38 39 40 41 42 43 44 45 46 47 48 49 50

000
ASUS41 KALY 290110
RWRALY

NEW YORK STATE HOURLY WEATHER ROUNDUP
NATIONAL WEATHER SERVICE ALBANY NY
800 PM EST FRI NOV 28 2014

NOTE: "FAIR" INDICATES FEW OR NO CLOUDS BELOW 12,000 FEET WITH NO
SIGNIFICANT WEATHER AND/OR NO OBSTRUCTIONS TO VISIBILITY.

NYZ032-033-038>043-046>054-057>066-NYZ062>081-290200-
EAST


CITY           SKY/WX    TMP DP  RH WIND       PRES   REMARKS
ALBANY         FLURRIES  25  13  60 W13       30.22S WCI  14
GLENS FALLS    MOCLDY    18  13  80 CALM      30.21R
POUGHKEEPSIE   CLEAR     21  13  71 NE3       30.24R
NEWBURGH       CLEAR     19  14  79 CALM      30.23R
MONTGOMERY     CLEAR     15  12  88 CALM      30.22S
WHITE PLAINS   CLEAR     26  11  52 NW5       30.22R WCI  20
ISLIP          CLEAR     29  14  53 NW7       30.22R WCI  22
NEW YORK CITY  PTCLDY    31  13  47 NW9       30.26R WCI  23
CENTRAL PARK   CLEAR     30  11  45 CALM      30.27R
$$

NYZ005>009-017-018-044>046-055-056-290200-
CENTRAL


CITY           SKY/WX    TMP DP  RH WIND       PRES   REMARKS
FULTON         CLOUDY    25  13  60 SW10      30.21S WCI  15
SYRACUSE       CLOUDY    26  14  60 W16       30.22S WCI  14
ROME           CLOUDY    22  18  85 CALM      30.23S
ELMIRA         PTCLDY    16  12  84 CALM      30.22R
BINGHAMTON     CLEAR     21   8  57 CALM      30.16S
MONTICELLO     CLEAR     16  10  79 NW7       30.17S WCI   6
$$

NYZ026>034-041>043-290200-
NORTH


CITY           SKY/WX    TMP DP  RH WIND       PRES   REMARKS
WATERTOWN      PTCLDY    24  11  57 NW7       30.20S WCI  16
FORT DRUM      NOT AVBL
MASSENA        CLEAR     17  12  80 CALM      30.20F
SARANAC LAKE   PTCLDY    12  32 100 SW6       30.07S WCI   3
PLATTSBURGH    PTCLDY    20  14  77 SW3       30.19R
$$

NYZ001>004-010>016-019>021-290200-
WEST


CITY           SKY/WX    TMP DP  RH WIND       PRES   REMARKS
NIAGARA FALLS  MOCLDY    21  12  68 CALM      30.20F
BUFFALO        FLURRIES  24  13  62 W3        30.20F
DUNKIRK        CLOUDY    26  17  68 S12G23    30.21F WCI  16
JAMESTOWN      MOCLDY    19  12  73 S6        30.15F WCI  11
WELLSVILLE     PTCLDY    19   9  65 W3        30.14S
ROCHESTER      CLOUDY    24  16  71 SW5       30.22F WCI  18
PENN YAN       CLOUDY    25  13  60 W5        30.21R WCI  19
$$

             KEY
       WCI = WIND CHILL INDEX
       VSB = VISIBILITY
       HX  = HEAT INDEX
$$


USA.gov is the U.S. government's official web portal to all federal, state and local government web resources and services.